| time (UTC) | temp C | wind direction | speed KPH | gust KPH | rain 1hr cm | rain 24hr cm | rain mn cm | humidity % | barometer mb |
| 20260507201004 | 17 | 150 | 0.0 | 1.6 | 0.00 | 0.00 | 0.00 | 68 | 1002.9 |
| 20260507200004 | 17 | 122 | 3.2 | 8.0 | 0.00 | 0.00 | 0.00 | 68 | 1002.1 |
| 20260507195504 | 17 | 107 | 1.6 | 4.8 | 0.00 | 0.00 | 0.00 | 68 | 1002.4 |
| 20260507195004 | 17 | 188 | 1.6 | 8.0 | 0.00 | 0.00 | 0.00 | 68 | 1002.6 |
| 20260507194504 | 17 | 111 | 0.0 | 1.6 | 0.00 | 0.00 | 0.00 | 68 | 1002.8 |
| 20260507193504 | 17 | 78 | 3.2 | 4.8 | 0.00 | 0.00 | 0.00 | 67 | 1003.3 |
| 20260507193004 | 18 | 133 | 1.6 | 4.8 | 0.00 | 0.00 | 0.00 | 67 | 1003.3 |
| 20260507192504 | 17 | 87 | 1.6 | 4.8 | 0.00 | 0.00 | 0.00 | 68 | 1003.6 |
| 20260507192004 | 17 | 46 | 0.0 | 1.6 | 0.00 | 0.00 | 0.00 | 68 | 1003.4 |
| 20260507191504 | 17 | 96 | 0.0 | 8.0 | 0.00 | 0.00 | 0.00 | 68 | 1003.2 |
| 20260507191004 | 18 | 187 | 4.8 | 8.0 | 0.00 | 0.00 | 0.00 | 68 | 1003.1 |
| 20260507190504 | 17 | 167 | 0.0 | 4.8 | 0.00 | 0.00 | 0.00 | 68 | 1003.2 |
| 20260507190005 | 17 | 197 | 4.8 | 9.7 | 0.00 | 0.00 | 0.00 | 69 | 1002.9 |
| 20260507185504 | 17 | 195 | 3.2 | 9.7 | 0.00 | 0.00 | 0.00 | 70 | 1002.6 |
| 20260507184504 | 17 | 148 | 1.6 | 4.8 | 0.00 | 0.00 | 0.00 | 71 | 1003.1 |
| 20260507184004 | 17 | 288 | 4.8 | 11.3 | 0.00 | 0.00 | 0.00 | 72 | 1002.8 |
| 20260507183504 | 16 | 155 | 4.8 | 8.0 | 0.00 | 0.00 | 0.00 | 71 | 1002.6 |
| 20260507183004 | 17 | 61 | 3.2 | 12.9 | 0.00 | 0.00 | 0.00 | 70 | 1002.7 |
| 20260507182504 | 17 | 195 | 4.8 | 12.9 | 0.00 | 0.00 | 0.00 | 70 | 1002.9 |
| 20260507181504 | 17 | 186 | 3.2 | 8.0 | 0.00 | 0.00 | 0.00 | 70 | 1003.0 |
| 20260507181004 | 17 | 184 | 3.2 | 9.7 | 0.00 | 0.00 | 0.00 | 70 | 1003.2 |
| 20260507180503 | 17 | 159 | 4.8 | 9.7 | 0.00 | 0.00 | 0.00 | 70 | 1003.1 |
| 20260507180004 | 17 | 66 | 3.2 | 4.8 | 0.00 | 0.00 | 0.00 | 70 | 1003.4 |
| 20260507175504 | 17 | 164 | 1.6 | 9.7 | 0.00 | 0.00 | 0.00 | 70 | 1003.7 |
| 20260507175004 | 17 | 204 | 6.4 | 9.7 | 0.00 | 0.00 | 0.00 | 69 | 1004.0 |
| 20260507174504 | 17 | 93 | 3.2 | 9.7 | 0.00 | 0.00 | 0.00 | 71 | 1003.8 |
| 20260507174004 | 17 | 127 | 1.6 | 8.0 | 0.00 | 0.00 | 0.00 | 71 | 1003.4 |
| 20260507173504 | 16 | 190 | 3.2 | 12.9 | 0.00 | 0.00 | 0.00 | 73 | 1003.1 |
| 20260507173004 | 16 | 164 | 8.0 | 12.9 | 0.00 | 0.00 | 0.00 | 74 | 1002.6 |
| 20260507172504 | 16 | 190 | 3.2 | 11.3 | 0.00 | 0.00 | 0.00 | 75 | 1003.2 |
| 20260507172004 | 16 | 121 | 1.6 | 4.8 | 0.00 | 0.00 | 0.00 | 78 | 1003.3 |
| 20260507171504 | 15 | 47 | 3.2 | 9.7 | 0.00 | 0.00 | 0.00 | 79 | 1003.5 |
| 20260507171004 | 15 | 69 | 3.2 | 9.7 | 0.00 | 0.00 | 0.00 | 80 | 1003.8 |
| 20260507170504 | 15 | 120 | 3.2 | 8.0 | 0.00 | 0.00 | 0.00 | 82 | 1003.5 |
| 20260507170004 | 15 | 173 | 1.6 | 8.0 | 0.00 | 0.00 | 0.00 | 83 | 1003.1 |
| 20260507165504 | 15 | 170 | 3.2 | 9.7 | 0.00 | 0.00 | 0.00 | 84 | 1002.8 |
| 20260507165004 | 15 | 152 | 3.2 | 8.0 | 0.00 | 0.00 | 0.00 | 84 | 1002.9 |
| 20260507164504 | 15 | 149 | 1.6 | 4.8 | 0.00 | 0.00 | 0.00 | 84 | 1003.2 |
| 20260507164004 | 14 | 355 | 3.2 | 8.0 | 0.00 | 0.00 | 0.00 | 83 | 1003.9 |
| 20260507163504 | 15 | 30 | 3.2 | 4.8 | 0.00 | 0.00 | 0.00 | 82 | 1003.7 |
| 20260507163004 | 15 | 126 | 3.2 | 4.8 | 0.00 | 0.00 | 0.00 | 82 | 1004.3 |
| 20260507162504 | 15 | 133 | 1.6 | 4.8 | 0.00 | 0.00 | 0.00 | 80 | 1004.8 |
| 20260507162004 | 15 | 180 | 3.2 | 4.8 | 0.00 | 0.00 | 0.00 | 79 | 1004.9 |
| 20260507161504 | 15 | 226 | 0.0 | 4.8 | 0.00 | 0.00 | 0.00 | 80 | 1005.3 |
| 20260507161004 | 14 | 77 | 3.2 | 9.7 | 0.00 | 0.00 | 0.00 | 81 | 1005.1 |
| 20260507160503 | 15 | 128 | 4.8 | 9.7 | 0.00 | 0.00 | 0.00 | 81 | 1004.9 |
| 20260507155504 | 15 | 78 | 3.2 | 4.8 | 0.00 | 0.00 | 0.00 | 82 | 1004.3 |
| 20260507155004 | 14 | 103 | 3.2 | 4.8 | 0.00 | 0.00 | 0.00 | 83 | 1004.4 |
| 20260507154504 | 15 | 77 | 1.6 | 8.0 | 0.00 | 0.00 | 0.00 | 83 | 1004.5 |
| 20260507153504 | 14 | 196 | 1.6 | 4.8 | 0.00 | 0.00 | 0.00 | 82 | 1004.6 |
| 20260507152504 | 14 | 211 | 1.6 | 4.8 | 0.00 | 0.00 | 0.00 | 84 | 1004.2 |
| 20260507152004 | 14 | 134 | 1.6 | 8.0 | 0.00 | 0.00 | 0.00 | 84 | 1004.5 |
| 20260507151504 | 14 | 141 | 1.6 | 4.8 | 0.00 | 0.00 | 0.00 | 84 | 1004.8 |
| 20260507151004 | 14 | 119 | 3.2 | 8.0 | 0.00 | 0.00 | 0.00 | 85 | 1004.4 |
| 20260507150504 | 14 | 109 | 3.2 | 8.0 | 0.00 | 0.00 | 0.00 | 86 | 1003.8 |
| 20260507150005 | 14 | 121 | 3.2 | 8.0 | 0.00 | 0.00 | 0.00 | 86 | 1004.5 |
| 20260507145503 | 14 | 350 | 3.2 | 9.7 | 0.00 | 0.00 | 0.00 | 86 | 1004.8 |
| 20260507145004 | 14 | 95 | 3.2 | 9.7 | 0.00 | 0.00 | 0.00 | 86 | 1004.5 |
| 20260507144504 | 13 | 98 | 3.2 | 9.7 | 0.00 | 0.00 | 0.00 | 87 | 1003.6 |
| 20260507144004 | 13 | 131 | 4.8 | 8.0 | 0.00 | 0.00 | 0.00 | 87 | 1003.8 |
| 20260507143504 | 13 | 99 | 4.8 | 11.3 | 0.00 | 0.00 | 0.00 | 88 | 1004.2 |
| 20260507143004 | 13 | 71 | 3.2 | 9.7 | 0.00 | 0.00 | 0.00 | 88 | 1004.0 |
| 20260507142504 | 13 | 105 | 4.8 | 12.9 | 0.00 | 0.00 | 0.00 | 88 | 1004.0 |
| 20260507142004 | 13 | 131 | 3.2 | 9.7 | 0.00 | 0.00 | 0.00 | 89 | 1004.3 |
| 20260507141504 | 13 | 187 | 3.2 | 9.7 | 0.00 | 0.00 | 0.00 | 90 | 1004.0 |
| 20260507140503 | 13 | 139 | 4.8 | 8.0 | 0.00 | 0.00 | 0.00 | 90 | 1004.1 |
| 20260507140004 | 13 | 107 | 1.6 | 9.7 | 0.00 | 0.00 | 0.00 | 91 | 1004.0 |
| 20260507135504 | 13 | 149 | 1.6 | 3.2 | 0.00 | 0.00 | 0.00 | 91 | 1003.9 |
| 20260507135004 | 13 | 80 | 3.2 | 8.0 | 0.00 | 0.00 | 0.00 | 91 | 1004.0 |
| 20260507134504 | 13 | 116 | 3.2 | 8.0 | 0.00 | 0.00 | 0.00 | 92 | 1003.7 |
| 20260507134004 | 13 | 119 | 3.2 | 8.0 | 0.00 | 0.00 | 0.00 | 92 | 1003.6 |
| 20260507133004 | 13 | 72 | 4.8 | 9.7 | 0.00 | 0.00 | 0.00 | 92 | 1003.3 |
| 20260507132004 | 13 | 77 | 1.6 | 9.7 | 0.00 | 0.00 | 0.00 | 92 | 1003.6 |
| 20260507131504 | 13 | 167 | 3.2 | 12.9 | 0.00 | 0.00 | 0.00 | 92 | 1003.5 |
| 20260507131004 | 13 | 103 | 4.8 | 12.9 | 0.00 | 0.00 | 0.00 | 92 | 1003.4 |
| 20260507130504 | 13 | 90 | 3.2 | 8.0 | 0.00 | 0.00 | 0.00 | 92 | 1003.7 |
| 20260507125504 | 12 | 27 | 4.8 | 9.7 | 0.00 | 0.00 | 0.00 | 92 | 1003.6 |
| 20260507125004 | 12 | 251 | 1.6 | 4.8 | 0.00 | 0.00 | 0.00 | 92 | 1003.7 |
| 20260507124503 | 12 | 70 | 3.2 | 9.7 | 0.00 | 0.00 | 0.00 | 92 | 1003.5 |
| 20260507123504 | 12 | 52 | 1.6 | 11.3 | 0.00 | 0.00 | 0.00 | 92 | 1003.6 |
| 20260507122504 | 12 | 172 | 4.8 | 11.3 | 0.00 | 0.00 | 0.00 | 92 | 1003.3 |
| 20260507121504 | 12 | 130 | 6.4 | 16.1 | 0.00 | 0.00 | 0.00 | 92 | 1003.4 |
| 20260507121004 | 12 | 140 | 3.2 | 20.9 | 0.00 | 0.00 | 0.00 | 92 | 1003.1 |
| 20260507120503 | 13 | 72 | 6.4 | 20.9 | 0.00 | 0.00 | 0.00 | 91 | 1003.1 |
| 20260507120004 | 13 | 135 | 3.2 | 8.0 | 0.00 | 0.00 | 0.00 | 91 | 1002.9 |
| 20260507115504 | 13 | 222 | 3.2 | 11.3 | 0.00 | 0.00 | 0.00 | 91 | 1002.6 |
| 20260507114503 | 13 | 53 | 3.2 | 9.7 | 0.00 | 0.00 | 0.00 | 91 | 1002.7 |
| 20260507113504 | 13 | 47 | 8.0 | 14.5 | 0.00 | 0.00 | 0.00 | 91 | 1003.1 |
| 20260507113004 | 13 | 84 | 3.2 | 9.7 | 0.00 | 0.00 | 0.00 | 91 | 1003.1 |
| 20260507112003 | 13 | 109 | 3.2 | 8.0 | 0.00 | 0.00 | 0.00 | 90 | 1002.9 |
| 20260507111504 | 13 | 45 | 4.8 | 12.9 | 0.00 | 0.00 | 0.00 | 90 | 1002.7 |
| 20260507111004 | 13 | 71 | 3.2 | 8.0 | 0.00 | 0.00 | 0.00 | 90 | 1002.6 |
| 20260507110504 | 13 | 114 | 3.2 | 4.8 | 0.00 | 0.00 | 0.00 | 90 | 1002.7 |
| 20260507110004 | 13 | 0 | 1.6 | 4.8 | 0.00 | 0.00 | 0.00 | 90 | 1002.7 |
| 20260507105504 | 13 | 199 | 3.2 | 12.9 | 0.00 | 0.00 | 0.00 | 90 | 1002.7 |
| 20260507105004 | 13 | 63 | 3.2 | 8.0 | 0.00 | 0.00 | 0.00 | 89 | 1002.7 |
| 20260507104504 | 13 | 144 | 4.8 | 11.3 | 0.00 | 0.00 | 0.00 | 89 | 1002.8 |
| 20260507104004 | 13 | 59 | 1.6 | 9.7 | 0.00 | 0.00 | 0.00 | 89 | 1003.0 |
| 20260507103504 | 13 | 63 | 8.0 | 19.3 | 0.00 | 0.00 | 0.00 | 89 | 1002.8 |
| 20260507103004 | 13 | 63 | 3.2 | 8.0 | 0.00 | 0.00 | 0.00 | 89 | 1002.4 |
| 20260507102504 | 13 | 154 | 3.2 | 11.3 | 0.00 | 0.00 | 0.00 | 89 | 1002.3 |
| 20260507101004 | 13 | 167 | 1.6 | 8.0 | 0.00 | 0.00 | 0.00 | 89 | 1002.6 |
| 20260507100504 | 13 | 98 | 4.8 | 11.3 | 0.00 | 0.00 | 0.00 | 89 | 1002.4 |
| 20260507100005 | 13 | 176 | 4.8 | 9.7 | 0.00 | 0.00 | 0.00 | 89 | 1002.2 |
| 20260507095504 | 13 | 35 | 3.2 | 4.8 | 0.00 | 0.00 | 0.00 | 89 | 1002.3 |
| 20260507095004 | 13 | 93 | 1.6 | 8.0 | 0.00 | 0.00 | 0.00 | 89 | 1002.4 |
| 20260507094504 | 13 | 202 | 3.2 | 8.0 | 0.00 | 0.00 | 0.00 | 88 | 1002.4 |
| 20260507094004 | 13 | 87 | 3.2 | 8.0 | 0.00 | 0.00 | 0.00 | 89 | 1002.5 |
| 20260507093504 | 13 | 351 | 1.6 | 11.3 | 0.00 | 0.00 | 0.00 | 89 | 1002.1 |
| 20260507093004 | 13 | 107 | 3.2 | 9.7 | 0.00 | 0.00 | 0.00 | 88 | 1002.0 |
| 20260507092504 | 13 | 178 | 3.2 | 9.7 | 0.00 | 0.00 | 0.00 | 88 | 1002.0 |
| 20260507090504 | 13 | 145 | 0.0 | 3.2 | 0.00 | 0.00 | 0.00 | 88 | 1001.6 |
| 20260507090005 | 13 | 35 | 1.6 | 8.0 | 0.00 | 0.00 | 0.00 | 88 | 1001.8 |
| 20260507085503 | 13 | 183 | 4.8 | 8.0 | 0.00 | 0.00 | 0.00 | 88 | 1001.7 |
| 20260507085004 | 13 | 169 | 1.6 | 8.0 | 0.00 | 0.00 | 0.00 | 88 | 1001.7 |
| 20260507084504 | 13 | 90 | 1.6 | 8.0 | 0.00 | 0.00 | 0.00 | 88 | 1001.5 |
| 20260507084004 | 13 | 109 | 0.0 | 8.0 | 0.00 | 0.00 | 0.00 | 88 | 1001.6 |
| 20260507083504 | 13 | 193 | 3.2 | 3.2 | 0.00 | 0.00 | 0.00 | 88 | 1001.5 |
| 20260507083005 | 13 | 129 | 1.6 | 4.8 | 0.00 | 0.00 | 0.00 | 88 | 1001.3 |
| 20260507082004 | 13 | 179 | 1.6 | 8.0 | 0.00 | 0.00 | 0.00 | 87 | 1001.4 |
| 20260507081504 | 14 | 173 | 4.8 | 8.0 | 0.00 | 0.00 | 0.00 | 87 | 1001.3 |
| 20260507080504 | 14 | 222 | 3.2 | 11.3 | 0.00 | 0.00 | 0.00 | 87 | 1001.3 |
| 20260507075003 | 14 | 179 | 3.2 | 4.8 | 0.00 | 0.00 | 0.00 | 87 | 1001.1 |
| 20260507074504 | 14 | 189 | 1.6 | 4.8 | 0.00 | 0.00 | 0.00 | 87 | 1001.1 |
| 20260507074004 | 14 | 217 | 1.6 | 3.2 | 0.00 | 0.00 | 0.00 | 87 | 1001.0 |
| 20260507073504 | 14 | 171 | 1.6 | 9.7 | 0.00 | 0.00 | 0.00 | 86 | 1000.6 |
| 20260507073004 | 14 | 158 | 4.8 | 11.3 | 0.00 | 0.00 | 0.00 | 86 | 1000.6 |
| 20260507072504 | 14 | 54 | 3.2 | 8.0 | 0.00 | 0.00 | 0.00 | 86 | 1000.8 |
| 20260507071504 | 14 | 184 | 0.0 | 3.2 | 0.00 | 0.00 | 0.00 | 86 | 1001.0 |
| 20260507071004 | 14 | 154 | 3.2 | 11.3 | 0.00 | 0.00 | 0.00 | 86 | 1000.9 |
| 20260507070504 | 14 | 205 | 3.2 | 11.3 | 0.00 | 0.00 | 0.00 | 86 | 1001.0 |
| 20260507070009 | 14 | 191 | 1.6 | 8.0 | 0.00 | 0.00 | 0.00 | 85 | 1001.0 |
| 20260507065504 | 14 | 189 | 1.6 | 4.8 | 0.00 | 0.00 | 0.00 | 85 | 1001.0 |
| 20260507065004 | 14 | 195 | 3.2 | 12.9 | 0.00 | 0.00 | 0.00 | 85 | 1000.8 |
| 20260507064504 | 14 | 175 | 3.2 | 12.9 | 0.00 | 0.00 | 0.00 | 85 | 1000.6 |
| 20260507063004 | 15 | 231 | 1.6 | 9.7 | 0.00 | 0.00 | 0.00 | 84 | 1000.8 |
| 20260507062004 | 15 | 151 | 3.2 | 8.0 | 0.00 | 0.00 | 0.00 | 84 | 1000.8 |
| 20260507061004 | 15 | 178 | 3.2 | 4.8 | 0.00 | 0.00 | 0.00 | 84 | 1001.0 |
| 20260507060504 | 15 | 191 | 3.2 | 11.3 | 0.00 | 0.00 | 0.00 | 85 | 1001.2 |
| 20260507060004 | 15 | 202 | 3.2 | 11.3 | 0.00 | 0.00 | 0.00 | 85 | 1001.1 |
| 20260507055503 | 15 | 167 | 1.6 | 3.2 | 0.00 | 0.00 | 0.00 | 85 | 1000.7 |
| 20260507055004 | 15 | 87 | 0.0 | 3.2 | 0.00 | 0.00 | 0.00 | 85 | 1000.9 |
| 20260507054504 | 15 | 72 | 1.6 | 4.8 | 0.00 | 0.00 | 0.00 | 85 | 1001.0 |
| 20260507054004 | 15 | 208 | 1.6 | 4.8 | 0.00 | 0.00 | 0.00 | 85 | 1000.8 |
| 20260507053504 | 15 | 195 | 1.6 | 4.8 | 0.00 | 0.00 | 0.00 | 84 | 1000.7 |
| 20260507053005 | 15 | 194 | 3.2 | 8.0 | 0.00 | 0.00 | 0.00 | 84 | 1000.6 |
| 20260507052504 | 15 | 178 | 4.8 | 8.0 | 0.00 | 0.00 | 0.00 | 84 | 1000.8 |
| 20260507052004 | 15 | 132 | 1.6 | 8.0 | 0.00 | 0.00 | 0.00 | 84 | 1000.9 |
| 20260507051503 | 15 | 143 | 3.2 | 9.7 | 0.00 | 0.00 | 0.00 | 83 | 1000.9 |
| 20260507051004 | 15 | 162 | 3.2 | 9.7 | 0.00 | 0.00 | 0.00 | 83 | 1000.8 |
| 20260507050504 | 15 | 179 | 4.8 | 9.7 | 0.00 | 0.00 | 0.00 | 83 | 1000.8 |
| 20260507050004 | 15 | 163 | 3.2 | 8.0 | 0.00 | 0.00 | 0.00 | 83 | 1000.8 |
| 20260507045504 | 15 | 185 | 3.2 | 9.7 | 0.00 | 0.00 | 0.00 | 83 | 1001.1 |
| 20260507045004 | 15 | 249 | 1.6 | 8.0 | 0.00 | 0.00 | 0.00 | 83 | 1000.8 |
| 20260507044004 | 15 | 137 | 4.8 | 9.7 | 0.00 | 0.00 | 0.00 | 83 | 1000.8 |
| 20260507043503 | 15 | 216 | 4.8 | 9.7 | 0.00 | 0.00 | 0.00 | 83 | 1000.8 |
| 20260507042004 | 15 | 141 | 3.2 | 11.3 | 0.00 | 0.00 | 0.00 | 84 | 1000.9 |
| 20260507041504 | 15 | 116 | 1.6 | 3.2 | 0.00 | 0.00 | 0.00 | 84 | 1001.1 |
| 20260507041004 | 15 | 148 | 1.6 | 3.2 | 0.00 | 0.00 | 0.00 | 84 | 1001.1 |
| 20260507040004 | 15 | 70 | 3.2 | 8.0 | 0.00 | 0.00 | 0.00 | 84 | 1001.2 |
| 20260507034505 | 15 | 356 | 3.2 | 9.7 | 0.00 | 0.00 | 0.00 | 84 | 1000.6 |
| 20260507034004 | 15 | 23 | 3.2 | 11.3 | 0.00 | 0.00 | 0.00 | 84 | 1000.7 |
| 20260507033504 | 15 | 89 | 4.8 | 11.3 | 0.00 | 0.00 | 0.00 | 84 | 1000.8 |
| 20260507032004 | 15 | 98 | 4.8 | 9.7 | 0.00 | 0.00 | 0.00 | 84 | 1000.6 |
| 20260507031504 | 15 | 284 | 3.2 | 11.3 | 0.00 | 0.00 | 0.00 | 84 | 1000.2 |
| 20260507031004 | 15 | 86 | 3.2 | 9.7 | 0.00 | 0.00 | 0.00 | 85 | 1000.4 |
| 20260507030504 | 15 | 105 | 3.2 | 11.3 | 0.00 | 0.00 | 0.00 | 85 | 1000.2 |
| 20260507030004 | 15 | 67 | 1.6 | 4.8 | 0.00 | 0.00 | 0.00 | 85 | 1000.5 |
| 20260507025504 | 15 | 93 | 3.2 | 8.0 | 0.00 | 0.00 | 0.00 | 85 | 1000.9 |
| 20260507024504 | 15 | 10 | 3.2 | 8.0 | 0.00 | 0.00 | 0.00 | 85 | 1000.7 |
| 20260507024003 | 15 | 91 | 3.2 | 8.0 | 0.00 | 0.00 | 0.00 | 85 | 1000.6 |
| 20260507023504 | 15 | 61 | 4.8 | 9.7 | 0.00 | 0.00 | 0.00 | 85 | 1000.4 |
| 20260507023004 | 15 | 79 | 3.2 | 9.7 | 0.00 | 0.00 | 0.00 | 85 | 1000.1 |
| 20260507022503 | 15 | 136 | 3.2 | 8.0 | 0.00 | 0.00 | 0.00 | 85 | 999.9 |
| 20260507020504 | 15 | 56 | 1.6 | 9.7 | 0.00 | 0.00 | 0.00 | 85 | 1000.3 |
| 20260507020004 | 15 | 111 | 3.2 | 4.8 | 0.00 | 0.00 | 0.00 | 84 | 1000.1 |
| 20260507015504 | 15 | 118 | 3.2 | 8.0 | 0.00 | 0.00 | 0.00 | 84 | 999.8 |
| 20260507015004 | 15 | 100 | 1.6 | 3.2 | 0.00 | 0.00 | 0.00 | 84 | 999.7 |
| 20260507014504 | 15 | 87 | 3.2 | 8.0 | 0.00 | 0.00 | 0.00 | 84 | 999.5 |
| 20260507014004 | 15 | 82 | 3.2 | 8.0 | 0.00 | 0.00 | 0.00 | 84 | 999.5 |
| 20260507013504 | 15 | 131 | 3.2 | 4.8 | 0.00 | 0.00 | 0.00 | 84 | 999.5 |
| 20260507012504 | 15 | 92 | 3.2 | 8.0 | 0.00 | 0.00 | 0.00 | 84 | 999.1 |
| 20260507012005 | 15 | 138 | 1.6 | 4.8 | 0.00 | 0.00 | 0.00 | 84 | 999.0 |
| 20260507011004 | 15 | 72 | 0.0 | 3.2 | 0.00 | 0.00 | 0.00 | 84 | 999.2 |
| 20260507010504 | 15 | 158 | 3.2 | 9.7 | 0.00 | 0.00 | 0.00 | 84 | 999.1 |
| 20260507010004 | 15 | 65 | 1.6 | 4.8 | 0.00 | 0.00 | 0.00 | 84 | 998.8 |
| 20260507005504 | 15 | 131 | 1.6 | 3.2 | 0.00 | 0.00 | 0.00 | 83 | 998.9 |
| 20260507005004 | 15 | 115 | 1.6 | 4.8 | 0.00 | 0.00 | 0.00 | 83 | 998.6 |
| 20260507004503 | 15 | 132 | 3.2 | 9.7 | 0.00 | 0.00 | 0.00 | 83 | 998.5 |
| 20260507004004 | 15 | 63 | 3.2 | 4.8 | 0.00 | 0.00 | 0.00 | 83 | 998.9 |
| 20260507003504 | 15 | 70 | 3.2 | 8.0 | 0.00 | 0.00 | 0.00 | 83 | 998.9 |
| 20260507003004 | 16 | 114 | 3.2 | 4.8 | 0.00 | 0.00 | 0.00 | 83 | 998.6 |
| 20260507002504 | 16 | 68 | 1.6 | 4.8 | 0.00 | 0.00 | 0.00 | 83 | 998.3 |
| 20260507002004 | 16 | 77 | 0.0 | 4.8 | 0.00 | 0.00 | 0.00 | 83 | 998.5 |
| 20260507001504 | 16 | 90 | 3.2 | 8.0 | 0.00 | 0.00 | 0.00 | 82 | 998.5 |
| 20260507001004 | 16 | 77 | 1.6 | 3.2 | 0.00 | 0.00 | 0.00 | 82 | 998.5 |
| 20260507000505 | 16 | 94 | 4.8 | 8.0 | 0.00 | 0.00 | 0.00 | 82 | 998.4 |
| 20260507000004 | 16 | 127 | 4.8 | 9.7 | 0.00 | 0.00 | 0.00 | 82 | 998.4 |
| 20260506235503 | 16 | 83 | 3.2 | 8.0 | 0.00 | 0.00 | 0.00 | 82 | 998.4 |
| 20260506235004 | 16 | 125 | 1.6 | 8.0 | 0.00 | 0.00 | 0.00 | 82 | 998.5 |
| 20260506234504 | 16 | 111 | 3.2 | 8.0 | 0.00 | 0.00 | 0.00 | 82 | 998.5 |
| 20260506234004 | 16 | 63 | 3.2 | 9.7 | 0.00 | 0.00 | 0.00 | 82 | 998.4 |
| 20260506233504 | 16 | 117 | 3.2 | 9.7 | 0.00 | 0.00 | 0.00 | 81 | 998.2 |
| 20260506233004 | 16 | 56 | 3.2 | 9.7 | 0.00 | 0.00 | 0.00 | 82 | 998.4 |
| 20260506232504 | 16 | 61 | 3.2 | 11.3 | 0.00 | 0.00 | 0.00 | 82 | 998.4 |
| 20260506232004 | 16 | 143 | 4.8 | 11.3 | 0.00 | 0.00 | 0.00 | 82 | 998.1 |
| 20260506231504 | 16 | 98 | 4.8 | 9.7 | 0.00 | 0.00 | 0.00 | 82 | 998.6 |
| 20260506231004 | 16 | 121 | 3.2 | 8.0 | 0.00 | 0.00 | 0.00 | 82 | 998.7 |
| 20260506230504 | 16 | 123 | 3.2 | 11.3 | 0.00 | 0.00 | 0.00 | 81 | 998.4 |
| 20260506230004 | 16 | 103 | 3.2 | 12.9 | 0.00 | 0.00 | 0.00 | 81 | 998.0 |
| 20260506225005 | 16 | 314 | 3.2 | 4.8 | 0.00 | 0.00 | 0.00 | 80 | 998.1 |
| 20260506224504 | 16 | 84 | 4.8 | 9.7 | 0.00 | 0.00 | 0.00 | 82 | 998.4 |
| 20260506224004 | 16 | 116 | 6.4 | 11.3 | 0.00 | 0.00 | 0.00 | 82 | 998.3 |
| 20260506223504 | 16 | 117 | 3.2 | 9.7 | 0.00 | 0.00 | 0.00 | 81 | 998.2 |
| 20260506223004 | 16 | 180 | 3.2 | 11.3 | 0.00 | 0.00 | 0.00 | 82 | 998.2 |
| 20260506222504 | 16 | 101 | 4.8 | 11.3 | 0.00 | 0.00 | 0.00 | 82 | 998.2 |
| 20260506222004 | 15 | 89 | 4.8 | 12.9 | 0.00 | 0.00 | 0.00 | 83 | 997.9 |
| 20260506221504 | 16 | 120 | 4.8 | 11.3 | 0.00 | 0.00 | 0.00 | 82 | 998.1 |
| 20260506221004 | 15 | 97 | 4.8 | 9.7 | 0.00 | 0.00 | 0.00 | 82 | 998.0 |
| 20260506220504 | 15 | 48 | 3.2 | 11.3 | 0.00 | 0.00 | 0.00 | 83 | 998.4 |
| 20260506220004 | 15 | 89 | 3.2 | 9.7 | 0.00 | 0.00 | 0.00 | 83 | 998.2 |
| 20260506215504 | 15 | 89 | 4.8 | 11.3 | 0.00 | 0.00 | 0.00 | 84 | 998.4 |
| 20260506215004 | 15 | 115 | 4.8 | 11.3 | 0.00 | 0.00 | 0.00 | 84 | 998.1 |
| 20260506214504 | 15 | 102 | 6.4 | 12.9 | 0.00 | 0.00 | 0.00 | 83 | 998.1 |
| 20260506213503 | 15 | 106 | 4.8 | 9.7 | 0.00 | 0.00 | 0.00 | 84 | 998.1 |
| 20260506212504 | 15 | 64 | 4.8 | 14.5 | 0.00 | 0.00 | 0.00 | 84 | 998.3 |
| 20260506212004 | 15 | 122 | 4.8 | 14.5 | 0.00 | 0.00 | 0.00 | 83 | 998.4 |
| 20260506211504 | 15 | 121 | 3.2 | 12.9 | 0.00 | 0.00 | 0.00 | 84 | 998.4 |
| 20260506211004 | 15 | 302 | 4.8 | 14.5 | 0.00 | 0.00 | 0.00 | 84 | 998.5 |
| 20260506210504 | 15 | 87 | 6.4 | 14.5 | 0.00 | 0.00 | 0.00 | 84 | 998.6 |
| 20260506210004 | 15 | 107 | 4.8 | 9.7 | 0.00 | 0.00 | 0.00 | 83 | 998.5 |
| 20260506205504 | 15 | 60 | 4.8 | 12.9 | 0.00 | 0.00 | 0.00 | 82 | 998.6 |
| 20260506205005 | 15 | 100 | 3.2 | 12.9 | 0.00 | 0.00 | 0.00 | 84 | 998.4 |
| 20260506203504 | 15 | 110 | 4.8 | 14.5 | 0.00 | 0.00 | 0.00 | 83 | 998.5 |
| 20260506203004 | 15 | 94 | 4.8 | 9.7 | 0.00 | 0.00 | 0.00 | 83 | 998.6 |
| 20260506202504 | 15 | 140 | 6.4 | 11.3 | 0.00 | 0.00 | 0.00 | 83 | 998.7 |
| 20260506202004 | 15 | 88 | 4.8 | 9.7 | 0.00 | 0.00 | 0.00 | 83 | 998.7 |
| 20260506201504 | 15 | 100 | 4.8 | 11.3 | 0.00 | 0.00 | 0.00 | 83 | 998.7 |